sat.trackr.live / text

‹ back to catalog

STARLINK-36704

NORAD 67697 · 2026-025E

PAYLOAD ACTIVE UNKNOWN

§ Identity

Operator
Country
US
Launch date
2026-02-07
Launch site
AFWTR
Launch vehicle
Mass (kg)
RCS (m²)

Purposes: comms

External: N2YO · Heavens-Above · Gunter

§ Orbital elements

Epoch: 2026-09-19T05:46:14.558592Z

Period
93.91 min
Inclination
97.2856°
Eccentricity
0.0001379
Mean motion
15.33460272 rev/d
Perigee alt
464.6 km
Apogee alt
466.4 km
Semi-major
6,843.6 km
B*
7.1697e-4
RAAN
12.1722°
Arg perigee
93.1341°
Mean anomaly
267.0059°
Rev number
3,567

§ Raw data

STARLINK-367041 67697U 26025E   26262.24044628  .00023154  00000+0  71697-3 0  99952 67697  97.2856  12.1722 0001379  93.1341 267.0059 15.33460272 35673

JSON: /api/v1/satellites/67697 · /tle

For live sub-satellite position, see the globe view (requires WebGL).

§ Visibility from observer

Set your observer location to see the next 7 days of passes ≥ 10°. The values pass through the URL so the page stays shareable.

No JS? Fill the form by hand. The geolocation button needs JavaScript.